Location: Rounton
(54.4000°N, 1.3500°W)
Time: 23:46:18
(UTC+01:00)

Vanguard 1 - Pass Details

Date: 23 February 2024
Orbit: 653 x 3825 km, 34.2° (Epoch: 21 April)

Event Time Altitude Azimuth Distance (km) Brightness Sun altitude
Rises 18:43:41 0° 196° (SSW) 5,502 14.1 -11.6°
Reaches altitude 10° 18:48:02 10° 182° (S) 4,982 13.7 -12.2°
Maximum altitude 18:58:41 23° 138° (SE) 4,944 13.2 -13.8°
Enters shadow 19:08:13 16° 107° (ESE) 6,058 13.4 -15.1°
Drops below altitude 10° 19:12:47 10° 97° (E) 6,759 - -15.8°
Sets 19:20:09 0° 86° (E) 7,957 - -16.9°
